Time,TemperatureF,DewpointF,PressureIn,WindDirection,WindDirectionDegrees,WindSpeedMPH,WindSpeedGustMPH,Humidity,HourlyPrecipIn,Conditions,Clouds,dailyrainin,SoftwareType,DateUTC
2013-05-23 00:02:00,62.1,52.9,29.90,North,-999,-999.0,-999.0,72,-99.99,,,-99.99,meteohub,2013-05-23 05:02:00,
2013-05-23 00:07:00,61.9,52.7,29.91,North,-999,-999.0,-999.0,72,-99.99,,,-99.99,meteohub,2013-05-23 05:07:00,
2013-05-23 00:12:00,61.7,52.5,29.90,North,-999,-999.0,-999.0,72,-99.99,,,-99.99,meteohub,2013-05-23 05:12:00,
2013-05-23 00:17:00,61.9,53.1,29.90,North,-999,-999.0,-999.0,73,-99.99,,,-99.99,meteohub,2013-05-23 05:17:00,
2013-05-23 00:22:00,61.2,52.9,29.90,North,-999,-999.0,-999.0,74,-99.99,,,-99.99,meteohub,2013-05-23 05:22:00,
2013-05-23 00:27:00,61.0,52.7,29.91,North,-999,-999.0,-999.0,74,-99.99,,,-99.99,meteohub,2013-05-23 05:27:00,
2013-05-23 00:32:00,60.8,52.5,29.91,North,-999,-999.0,-999.0,74,-99.99,,,-99.99,meteohub,2013-05-23 05:32:00,
2013-05-23 00:37:00,60.6,52.7,29.91,North,-999,-999.0,-999.0,75,-99.99,,,-99.99,meteohub,2013-05-23 05:37:00,
2013-05-23 00:42:00,60.3,52.7,29.91,North,-999,-999.0,-999.0,76,-99.99,,,-99.99,meteohub,2013-05-23 05:42:00,
2013-05-23 00:47:00,60.1,52.5,29.91,North,-999,-999.0,-999.0,76,-99.99,,,-99.99,meteohub,2013-05-23 05:47:00,
2013-05-23 00:52:00,59.9,52.7,29.91,North,-999,-999.0,-999.0,77,-99.99,,,-99.99,meteohub,2013-05-23 05:52:00,
2013-05-23 00:57:00,59.7,52.9,29.91,North,-999,-999.0,-999.0,78,-99.99,,,-99.99,meteohub,2013-05-23 05:57:00,
2013-05-23 01:02:00,59.5,52.7,29.91,North,-999,-999.0,-999.0,78,-99.99,,,-99.99,meteohub,2013-05-23 06:02:00,
2013-05-23 01:07:00,59.4,52.5,29.91,North,-999,-999.0,-999.0,78,-99.99,,,-99.99,meteohub,2013-05-23 06:07:00,
2013-05-23 01:12:00,59.2,52.3,29.91,North,-999,-999.0,-999.0,78,-99.99,,,-99.99,meteohub,2013-05-23 06:12:00,
2013-05-23 01:17:00,59.2,52.3,29.91,North,-999,-999.0,-999.0,78,-99.99,,,-99.99,meteohub,2013-05-23 06:17:00,
2013-05-23 01:22:00,59.0,52.2,29.91,North,-999,-999.0,-999.0,78,-99.99,,,-99.99,meteohub,2013-05-23 06:22:00,
2013-05-23 01:27:00,59.0,52.2,29.91,North,-999,-999.0,-999.0,78,-99.99,,,-99.99,meteohub,2013-05-23 06:27:00,
2013-05-23 01:32:00,58.8,52.3,29.91,North,-999,-999.0,-999.0,79,-99.99,,,-99.99,meteohub,2013-05-23 06:32:00,
2013-05-23 01:37:00,58.6,52.2,29.91,North,-999,-999.0,-999.0,79,-99.99,,,-99.99,meteohub,2013-05-23 06:37:00,
2013-05-23 01:42:00,58.6,52.5,29.91,North,-999,-999.0,-999.0,80,-99.99,,,-99.99,meteohub,2013-05-23 06:42:00,
2013-05-23 01:47:00,58.6,52.2,29.91,North,-999,-999.0,-999.0,79,-99.99,,,-99.99,meteohub,2013-05-23 06:47:00,
2013-05-23 01:52:00,58.8,52.3,29.91,North,-999,-999.0,-999.0,79,-99.99,,,-99.99,meteohub,2013-05-23 06:52:00,
2013-05-23 01:57:00,58.8,52.0,29.91,North,-999,-999.0,-999.0,78,-99.99,,,-99.99,meteohub,2013-05-23 06:57:00,
2013-05-23 02:02:00,58.8,52.0,29.91,North,-999,-999.0,-999.0,78,-99.99,,,-99.99,meteohub,2013-05-23 07:02:00,
2013-05-23 02:07:00,58.8,52.0,29.91,North,-999,-999.0,-999.0,78,-99.99,,,-99.99,meteohub,2013-05-23 07:07:00,
2013-05-23 02:12:00,58.8,52.0,29.91,North,-999,-999.0,-999.0,78,-99.99,,,-99.99,meteohub,2013-05-23 07:12:00,
2013-05-23 02:17:00,58.6,51.8,29.92,North,-999,-999.0,-999.0,78,-99.99,,,-99.99,meteohub,2013-05-23 07:17:00,
2013-05-23 02:22:00,58.5,52.0,29.91,North,-999,-999.0,-999.0,79,-99.99,,,-99.99,meteohub,2013-05-23 07:22:00,
2013-05-23 02:27:00,58.5,52.0,29.92,North,-999,-999.0,-999.0,79,-99.99,,,-99.99,meteohub,2013-05-23 07:27:00,
2013-05-23 02:32:00,58.1,51.6,29.92,North,-999,-999.0,-999.0,79,-99.99,,,-99.99,meteohub,2013-05-23 07:32:00,
2013-05-23 02:37:00,57.9,51.4,29.92,North,-999,-999.0,-999.0,79,-99.99,,,-99.99,meteohub,2013-05-23 07:37:00,
2013-05-23 02:42:00,57.7,51.6,29.92,North,-999,-999.0,-999.0,80,-99.99,,,-99.99,meteohub,2013-05-23 07:42:00,
2013-05-23 02:47:00,57.6,51.4,29.92,North,-999,-999.0,-999.0,80,-99.99,,,-99.99,meteohub,2013-05-23 07:47:00,
2013-05-23 02:52:00,57.4,51.3,29.92,North,-999,-999.0,-999.0,80,-99.99,,,-99.99,meteohub,2013-05-23 07:52:00,
2013-05-23 02:57:00,57.4,51.6,29.92,North,-999,-999.0,-999.0,81,-99.99,,,-99.99,meteohub,2013-05-23 07:57:00,
2013-05-23 03:02:00,57.2,51.4,29.92,North,-999,-999.0,-999.0,81,-99.99,,,-99.99,meteohub,2013-05-23 08:02:00,
2013-05-23 03:07:00,57.0,51.3,29.93,North,-999,-999.0,-999.0,81,-99.99,,,-99.99,meteohub,2013-05-23 08:07:00,
2013-05-23 03:12:00,56.8,51.4,29.93,North,-999,-999.0,-999.0,82,-99.99,,,-99.99,meteohub,2013-05-23 08:12:00,
2013-05-23 03:17:00,56.8,51.4,29.93,North,-999,-999.0,-999.0,82,-99.99,,,-99.99,meteohub,2013-05-23 08:17:00,
2013-05-23 03:22:00,56.7,51.3,29.93,North,-999,-999.0,-999.0,82,-99.99,,,-99.99,meteohub,2013-05-23 08:22:00,
2013-05-23 03:27:00,56.7,51.3,29.93,North,-999,-999.0,-999.0,82,-99.99,,,-99.99,meteohub,2013-05-23 08:27:00,
2013-05-23 03:32:00,56.5,51.1,29.93,North,-999,-999.0,-999.0,82,-99.99,,,-99.99,meteohub,2013-05-23 08:32:00,
2013-05-23 03:37:00,56.3,51.3,29.93,North,-999,-999.0,-999.0,83,-99.99,,,-99.99,meteohub,2013-05-23 08:37:00,
2013-05-23 03:42:00,55.9,51.3,29.93,North,-999,-999.0,-999.0,84,-99.99,,,-99.99,meteohub,2013-05-23 08:42:00,
2013-05-23 03:47:00,55.8,51.1,29.94,North,-999,-999.0,-999.0,84,-99.99,,,-99.99,meteohub,2013-05-23 08:47:00,
2013-05-23 03:52:00,55.6,51.1,29.94,North,-999,-999.0,-999.0,85,-99.99,,,-99.99,meteohub,2013-05-23 08:52:00,
2013-05-23 03:57:00,55.4,50.9,29.94,North,-999,-999.0,-999.0,85,-99.99,,,-99.99,meteohub,2013-05-23 08:57:00,
2013-05-23 04:02:00,55.2,50.7,29.94,North,-999,-999.0,-999.0,85,-99.99,,,-99.99,meteohub,2013-05-23 09:02:00,
2013-05-23 04:07:00,55.0,50.9,29.94,North,-999,-999.0,-999.0,86,-99.99,,,-99.99,meteohub,2013-05-23 09:07:00,
2013-05-23 04:12:00,54.9,51.1,29.95,North,-999,-999.0,-999.0,87,-99.99,,,-99.99,meteohub,2013-05-23 09:12:00,
2013-05-23 04:17:00,54.7,50.9,29.95,North,-999,-999.0,-999.0,87,-99.99,,,-99.99,meteohub,2013-05-23 09:17:00,
2013-05-23 04:22:00,54.5,51.1,29.95,North,-999,-999.0,-999.0,88,-99.99,,,-99.99,meteohub,2013-05-23 09:22:00,
2013-05-23 04:27:00,54.3,50.9,29.96,North,-999,-999.0,-999.0,88,-99.99,,,-99.99,meteohub,2013-05-23 09:27:00,
2013-05-23 04:32:00,54.1,50.9,29.96,North,-999,-999.0,-999.0,89,-99.99,,,-99.99,meteohub,2013-05-23 09:32:00,
2013-05-23 04:37:00,53.8,50.9,29.96,North,-999,-999.0,-999.0,90,-99.99,,,-99.99,meteohub,2013-05-23 09:37:00,
2013-05-23 04:42:00,53.8,50.9,29.96,North,-999,-999.0,-999.0,90,-99.99,,,-99.99,meteohub,2013-05-23 09:42:00,
2013-05-23 04:47:00,53.8,50.9,29.96,North,-999,-999.0,-999.0,90,-99.99,,,-99.99,meteohub,2013-05-23 09:47:00,
2013-05-23 04:52:00,53.6,50.7,29.97,North,-999,-999.0,-999.0,90,-99.99,,,-99.99,meteohub,2013-05-23 09:52:00,
2013-05-23 04:57:00,53.4,50.9,29.97,North,-999,-999.0,-999.0,91,-99.99,,,-99.99,meteohub,2013-05-23 09:57:00,
2013-05-23 05:02:00,53.2,50.7,29.97,North,-999,-999.0,-999.0,91,-99.99,,,-99.99,meteohub,2013-05-23 10:02:00,
2013-05-23 05:07:00,53.2,50.7,29.98,North,-999,-999.0,-999.0,91,-99.99,,,-99.99,meteohub,2013-05-23 10:07:00,
2013-05-23 05:12:00,53.2,50.7,29.97,North,-999,-999.0,-999.0,91,-99.99,,,-99.99,meteohub,2013-05-23 10:12:00,
2013-05-23 05:17:00,53.2,50.7,29.98,North,-999,-999.0,-999.0,91,-99.99,,,-99.99,meteohub,2013-05-23 10:17:00,
2013-05-23 05:22:00,53.1,50.5,29.98,North,-999,-999.0,-999.0,91,-99.99,,,-99.99,meteohub,2013-05-23 10:22:00,
2013-05-23 05:27:00,53.1,50.5,29.98,North,-999,-999.0,-999.0,91,-99.99,,,-99.99,meteohub,2013-05-23 10:27:00,
2013-05-23 05:32:00,52.9,50.4,29.98,North,-999,-999.0,-999.0,91,-99.99,,,-99.99,meteohub,2013-05-23 10:32:00,
2013-05-23 05:37:00,52.9,50.5,29.98,North,-999,-999.0,-999.0,92,-99.99,,,-99.99,meteohub,2013-05-23 10:37:00,
2013-05-23 05:42:00,52.9,50.5,29.99,North,-999,-999.0,-999.0,92,-99.99,,,-99.99,meteohub,2013-05-23 10:42:00,
2013-05-23 05:47:00,52.9,50.5,29.99,North,-999,-999.0,-999.0,92,-99.99,,,-99.99,meteohub,2013-05-23 10:47:00,
2013-05-23 05:52:00,52.7,50.4,29.99,North,-999,-999.0,-999.0,92,-99.99,,,-99.99,meteohub,2013-05-23 10:52:00,
2013-05-23 05:57:00,52.7,50.4,29.99,North,-999,-999.0,-999.0,92,-99.99,,,-99.99,meteohub,2013-05-23 10:57:00,
2013-05-23 06:02:00,52.7,50.4,29.99,North,-999,-999.0,-999.0,92,-99.99,,,-99.99,meteohub,2013-05-23 11:02:00,
2013-05-23 06:07:00,52.7,50.4,30.00,North,-999,-999.0,-999.0,92,-99.99,,,-99.99,meteohub,2013-05-23 11:07:00,
2013-05-23 06:12:00,52.7,50.4,30.00,North,-999,-999.0,-999.0,92,-99.99,,,-99.99,meteohub,2013-05-23 11:12:00,
2013-05-23 06:17:00,52.7,50.4,30.00,North,-999,-999.0,-999.0,92,-99.99,,,-99.99,meteohub,2013-05-23 11:17:00,
2013-05-23 06:22:00,52.5,50.2,30.00,North,-999,-999.0,-999.0,92,-99.99,,,-99.99,meteohub,2013-05-23 11:22:00,
2013-05-23 06:27:00,52.7,50.4,30.01,North,-999,-999.0,-999.0,92,-99.99,,,-99.99,meteohub,2013-05-23 11:27:00,
2013-05-23 06:32:00,53.6,51.3,30.00,North,-999,-999.0,-999.0,92,-99.99,,,-99.99,meteohub,2013-05-23 11:32:00,
2013-05-23 06:37:00,54.3,51.4,30.01,North,-999,-999.0,-999.0,90,-99.99,,,-99.99,meteohub,2013-05-23 11:37:00,
2013-05-23 06:42:00,55.0,51.8,30.01,North,-999,-999.0,-999.0,89,-99.99,,,-99.99,meteohub,2013-05-23 11:42:00,
2013-05-23 06:47:00,55.4,51.6,30.01,North,-999,-999.0,-999.0,87,-99.99,,,-99.99,meteohub,2013-05-23 11:47:00,
2013-05-23 06:52:00,55.9,51.8,30.01,North,-999,-999.0,-999.0,86,-99.99,,,-99.99,meteohub,2013-05-23 11:52:00,
2013-05-23 06:57:00,56.5,51.6,30.02,North,-999,-999.0,-999.0,84,-99.99,,,-99.99,meteohub,2013-05-23 11:57:00,
2013-05-23 07:02:00,56.7,51.8,30.02,North,-999,-999.0,-999.0,84,-99.99,,,-99.99,meteohub,2013-05-23 12:02:00,
2013-05-23 07:07:00,56.8,51.8,30.02,North,-999,-999.0,-999.0,83,-99.99,,,-99.99,meteohub,2013-05-23 12:07:00,
2013-05-23 07:12:00,57.2,52.2,30.02,North,-999,-999.0,-999.0,83,-99.99,,,-99.99,meteohub,2013-05-23 12:12:00,
2013-05-23 07:17:00,57.7,52.0,30.02,North,-999,-999.0,-999.0,81,-99.99,,,-99.99,meteohub,2013-05-23 12:17:00,
2013-05-23 07:22:00,57.9,51.8,30.03,North,-999,-999.0,-999.0,80,-99.99,,,-99.99,meteohub,2013-05-23 12:22:00,
2013-05-23 07:27:00,58.3,52.2,30.03,North,-999,-999.0,-999.0,80,-99.99,,,-99.99,meteohub,2013-05-23 12:27:00,
2013-05-23 07:32:00,58.3,51.4,30.03,North,-999,-999.0,-999.0,78,-99.99,,,-99.99,meteohub,2013-05-23 12:32:00,
2013-05-23 07:37:00,58.5,52.0,30.03,North,-999,-999.0,-999.0,79,-99.99,,,-99.99,meteohub,2013-05-23 12:37:00,
2013-05-23 07:42:00,59.4,52.5,30.03,North,-999,-999.0,-999.0,78,-99.99,,,-99.99,meteohub,2013-05-23 12:42:00,
2013-05-23 07:47:00,59.9,52.3,30.03,North,-999,-999.0,-999.0,76,-99.99,,,-99.99,meteohub,2013-05-23 12:47:00,
2013-05-23 07:52:00,60.1,52.5,30.03,North,-999,-999.0,-999.0,76,-99.99,,,-99.99,meteohub,2013-05-23 12:52:00,
2013-05-23 07:57:00,60.3,52.0,30.03,North,-999,-999.0,-999.0,74,-99.99,,,-99.99,meteohub,2013-05-23 12:57:00,
2013-05-23 08:02:00,60.4,51.8,30.03,North,-999,-999.0,-999.0,73,-99.99,,,-99.99,meteohub,2013-05-23 13:02:00,
2013-05-23 08:07:00,61.2,52.0,30.03,North,-999,-999.0,-999.0,72,-99.99,,,-99.99,meteohub,2013-05-23 13:07:00,
2013-05-23 08:12:00,62.1,52.9,30.03,North,-999,-999.0,-999.0,72,-99.99,,,-99.99,meteohub,2013-05-23 13:12:00,
2013-05-23 08:17:00,63.1,52.9,30.04,North,-999,-999.0,-999.0,69,-99.99,,,-99.99,meteohub,2013-05-23 13:17:00,
2013-05-23 08:22:00,63.1,52.0,30.03,North,-999,-999.0,-999.0,67,-99.99,,,-99.99,meteohub,2013-05-23 13:22:00,
2013-05-23 08:27:00,63.3,52.5,30.04,North,-999,-999.0,-999.0,68,-99.99,,,-99.99,meteohub,2013-05-23 13:27:00,
2013-05-23 08:32:00,63.3,52.5,30.04,North,-999,-999.0,-999.0,68,-99.99,,,-99.99,meteohub,2013-05-23 13:32:00,
2013-05-23 08:37:00,63.9,52.7,30.05,North,-999,-999.0,-999.0,67,-99.99,,,-99.99,meteohub,2013-05-23 13:37:00,
2013-05-23 08:42:00,63.9,52.3,30.04,North,-999,-999.0,-999.0,66,-99.99,,,-99.99,meteohub,2013-05-23 13:42:00,
2013-05-23 08:47:00,64.0,52.0,30.04,North,-999,-999.0,-999.0,65,-99.99,,,-99.99,meteohub,2013-05-23 13:47:00,
2013-05-23 08:52:00,64.2,52.7,30.05,North,-999,-999.0,-999.0,66,-99.99,,,-99.99,meteohub,2013-05-23 13:52:00,
2013-05-23 08:57:00,63.7,52.2,30.04,North,-999,-999.0,-999.0,66,-99.99,,,-99.99,meteohub,2013-05-23 13:57:00,
2013-05-23 09:02:00,64.8,53.6,30.04,North,-999,-999.0,-999.0,67,-99.99,,,-99.99,meteohub,2013-05-23 14:02:00,
2013-05-23 09:07:00,65.3,52.9,30.04,North,-999,-999.0,-999.0,64,-99.99,,,-99.99,meteohub,2013-05-23 14:07:00,
2013-05-23 09:12:00,64.0,52.5,30.04,North,-999,-999.0,-999.0,66,-99.99,,,-99.99,meteohub,2013-05-23 14:12:00,
2013-05-23 09:17:00,65.1,52.7,30.04,North,-999,-999.0,-999.0,64,-99.99,,,-99.99,meteohub,2013-05-23 14:17:00,
2013-05-23 09:22:00,65.7,52.7,30.04,North,-999,-999.0,-999.0,63,-99.99,,,-99.99,meteohub,2013-05-23 14:22:00,
2013-05-23 09:27:00,64.6,51.6,30.04,North,-999,-999.0,-999.0,63,-99.99,,,-99.99,meteohub,2013-05-23 14:27:00,
2013-05-23 09:32:00,63.0,51.8,30.04,North,-999,-999.0,-999.0,67,-99.99,,,-99.99,meteohub,2013-05-23 14:32:00,
2013-05-23 09:37:00,63.5,52.3,30.03,North,-999,-999.0,-999.0,67,-99.99,,,-99.99,meteohub,2013-05-23 14:37:00,
2013-05-23 09:42:00,64.9,52.9,30.04,North,-999,-999.0,-999.0,65,-99.99,,,-99.99,meteohub,2013-05-23 14:42:00,
2013-05-23 09:47:00,65.5,52.5,30.04,North,-999,-999.0,-999.0,63,-99.99,,,-99.99,meteohub,2013-05-23 14:47:00,
2013-05-23 09:53:00,65.8,53.2,30.04,North,-999,-999.0,-999.0,64,-99.99,,,-99.99,meteohub,2013-05-23 14:53:00,
2013-05-23 09:59:00,66.4,52.9,30.05,North,-999,-999.0,-999.0,62,-99.99,,,-99.99,meteohub,2013-05-23 14:59:00,
2013-05-23 10:05:00,66.4,52.9,30.05,North,-999,-999.0,-999.0,62,-99.99,,,-99.99,meteohub,2013-05-23 15:05:00,
2013-05-23 10:11:00,66.0,53.4,30.06,North,-999,-999.0,-999.0,64,-99.99,,,-99.99,meteohub,2013-05-23 15:11:00,
2013-05-23 10:17:00,65.7,52.7,30.06,North,-999,-999.0,-999.0,63,-99.99,,,-99.99,meteohub,2013-05-23 15:17:00,
2013-05-23 10:22:00,65.5,53.4,30.07,North,-999,-999.0,-999.0,65,-99.99,,,-99.99,meteohub,2013-05-23 15:22:00,
2013-05-23 10:27:00,65.1,53.4,30.07,North,-999,-999.0,-999.0,66,-99.99,,,-99.99,meteohub,2013-05-23 15:27:00,
2013-05-23 10:32:00,65.5,53.1,30.07,North,-999,-999.0,-999.0,64,-99.99,,,-99.99,meteohub,2013-05-23 15:32:00,
2013-05-23 10:37:00,64.6,52.5,30.08,North,-999,-999.0,-999.0,65,-99.99,,,-99.99,meteohub,2013-05-23 15:37:00,
2013-05-23 10:42:00,65.3,52.9,30.08,North,-999,-999.0,-999.0,64,-99.99,,,-99.99,meteohub,2013-05-23 15:42:00,
2013-05-23 10:47:00,67.3,55.0,30.07,North,-999,-999.0,-999.0,65,-99.99,,,-99.99,meteohub,2013-05-23 15:47:00,
2013-05-23 10:52:00,69.3,53.4,30.08,North,-999,-999.0,-999.0,57,-99.99,,,-99.99,meteohub,2013-05-23 15:52:00,
2013-05-23 10:57:00,68.4,53.4,30.08,North,-999,-999.0,-999.0,59,-99.99,,,-99.99,meteohub,2013-05-23 15:57:00,
2013-05-23 11:02:00,67.5,53.6,30.08,North,-999,-999.0,-999.0,61,-99.99,,,-99.99,meteohub,2013-05-23 16:02:00,
2013-05-23 11:07:00,66.7,52.9,30.09,North,-999,-999.0,-999.0,61,-99.99,,,-99.99,meteohub,2013-05-23 16:07:00,
2013-05-23 11:12:00,66.2,53.2,30.08,North,-999,-999.0,-999.0,63,-99.99,,,-99.99,meteohub,2013-05-23 16:12:00,
2013-05-23 11:17:00,66.9,53.4,30.09,North,-999,-999.0,-999.0,62,-99.99,,,-99.99,meteohub,2013-05-23 16:17:00,
2013-05-23 11:22:00,67.6,54.7,30.08,North,-999,-999.0,-999.0,63,-99.99,,,-99.99,meteohub,2013-05-23 16:22:00,
2013-05-23 11:27:00,68.7,54.7,30.09,North,-999,-999.0,-999.0,61,-99.99,,,-99.99,meteohub,2013-05-23 16:27:00,
2013-05-23 11:32:00,69.3,53.4,30.09,North,-999,-999.0,-999.0,57,-99.99,,,-99.99,meteohub,2013-05-23 16:32:00,
2013-05-23 11:37:00,67.8,52.9,30.09,North,-999,-999.0,-999.0,59,-99.99,,,-99.99,meteohub,2013-05-23 16:37:00,
2013-05-23 11:42:00,68.5,53.2,30.10,North,-999,-999.0,-999.0,58,-99.99,,,-99.99,meteohub,2013-05-23 16:42:00,
2013-05-23 11:47:00,67.8,52.9,30.10,North,-999,-999.0,-999.0,59,-99.99,,,-99.99,meteohub,2013-05-23 16:47:00,
2013-05-23 11:52:00,67.6,53.8,30.10,North,-999,-999.0,-999.0,61,-99.99,,,-99.99,meteohub,2013-05-23 16:52:00,
2013-05-23 11:57:00,67.6,53.8,30.10,North,-999,-999.0,-999.0,61,-99.99,,,-99.99,meteohub,2013-05-23 16:57:00,
2013-05-23 12:02:00,67.8,54.0,30.10,North,-999,-999.0,-999.0,61,-99.99,,,-99.99,meteohub,2013-05-23 17:02:00,
2013-05-23 12:07:00,67.8,54.3,30.09,North,-999,-999.0,-999.0,62,-99.99,,,-99.99,meteohub,2013-05-23 17:07:00,
2013-05-23 12:12:00,68.4,54.0,30.09,North,-999,-999.0,-999.0,60,-99.99,,,-99.99,meteohub,2013-05-23 17:12:00,
2013-05-23 12:17:00,68.9,54.5,30.10,North,-999,-999.0,-999.0,60,-99.99,,,-99.99,meteohub,2013-05-23 17:17:00,
2013-05-23 12:22:00,70.2,54.7,30.09,North,-999,-999.0,-999.0,58,-99.99,,,-99.99,meteohub,2013-05-23 17:22:00,
2013-05-23 12:27:00,70.9,54.3,30.09,North,-999,-999.0,-999.0,56,-99.99,,,-99.99,meteohub,2013-05-23 17:27:00,
2013-05-23 12:32:00,71.4,54.0,30.09,North,-999,-999.0,-999.0,54,-99.99,,,-99.99,meteohub,2013-05-23 17:32:00,
2013-05-23 12:37:00,70.3,53.4,30.10,North,-999,-999.0,-999.0,55,-99.99,,,-99.99,meteohub,2013-05-23 17:37:00,
2013-05-23 12:42:00,70.5,54.1,30.09,North,-999,-999.0,-999.0,56,-99.99,,,-99.99,meteohub,2013-05-23 17:42:00,
2013-05-23 12:47:00,69.8,53.4,30.10,North,-999,-999.0,-999.0,56,-99.99,,,-99.99,meteohub,2013-05-23 17:47:00,
2013-05-23 12:52:00,69.6,54.1,30.10,North,-999,-999.0,-999.0,58,-99.99,,,-99.99,meteohub,2013-05-23 17:52:00,
2013-05-23 12:57:00,69.8,54.9,30.10,North,-999,-999.0,-999.0,59,-99.99,,,-99.99,meteohub,2013-05-23 17:57:00,
2013-05-23 13:02:00,69.6,53.2,30.10,North,-999,-999.0,-999.0,56,-99.99,,,-99.99,meteohub,2013-05-23 18:02:00,
2013-05-23 13:07:00,70.0,53.6,30.10,North,-999,-999.0,-999.0,56,-99.99,,,-99.99,meteohub,2013-05-23 18:07:00,
2013-05-23 13:12:00,69.6,53.8,30.10,North,-999,-999.0,-999.0,57,-99.99,,,-99.99,meteohub,2013-05-23 18:12:00,
2013-05-23 13:17:00,69.4,53.1,30.11,North,-999,-999.0,-999.0,56,-99.99,,,-99.99,meteohub,2013-05-23 18:17:00,
2013-05-23 13:22:00,70.7,54.7,30.11,North,-999,-999.0,-999.0,57,-99.99,,,-99.99,meteohub,2013-05-23 18:22:00,
2013-05-23 13:27:00,72.1,56.5,30.10,North,-999,-999.0,-999.0,58,-99.99,,,-99.99,meteohub,2013-05-23 18:27:00,
2013-05-23 13:32:00,72.7,53.4,30.11,North,-999,-999.0,-999.0,51,-99.99,,,-99.99,meteohub,2013-05-23 18:32:00,
2013-05-23 13:37:00,71.2,52.7,30.10,North,-999,-999.0,-999.0,52,-99.99,,,-99.99,meteohub,2013-05-23 18:37:00,
2013-05-23 13:42:00,70.9,54.9,30.10,North,-999,-999.0,-999.0,57,-99.99,,,-99.99,meteohub,2013-05-23 18:42:00,
2013-05-23 13:47:00,71.4,54.0,30.10,North,-999,-999.0,-999.0,54,-99.99,,,-99.99,meteohub,2013-05-23 18:47:00,
2013-05-23 13:52:00,70.3,54.0,30.11,North,-999,-999.0,-999.0,56,-99.99,,,-99.99,meteohub,2013-05-23 18:52:00,
2013-05-23 13:57:00,71.6,53.6,30.11,North,-999,-999.0,-999.0,53,-99.99,,,-99.99,meteohub,2013-05-23 18:57:00,
2013-05-23 14:02:00,72.3,53.8,30.10,North,-999,-999.0,-999.0,52,-99.99,,,-99.99,meteohub,2013-05-23 19:02:00,
2013-05-23 14:07:00,72.7,54.0,30.10,North,-999,-999.0,-999.0,52,-99.99,,,-99.99,meteohub,2013-05-23 19:07:00,
2013-05-23 14:12:00,71.8,56.1,30.10,North,-999,-999.0,-999.0,58,-99.99,,,-99.99,meteohub,2013-05-23 19:12:00,
2013-05-23 14:17:00,71.8,56.1,30.10,North,-999,-999.0,-999.0,58,-99.99,,,-99.99,meteohub,2013-05-23 19:17:00,
2013-05-23 14:22:00,71.6,53.6,30.10,North,-999,-999.0,-999.0,53,-99.99,,,-99.99,meteohub,2013-05-23 19:22:00,
2013-05-23 14:27:00,71.4,53.4,30.10,North,-999,-999.0,-999.0,53,-99.99,,,-99.99,meteohub,2013-05-23 19:27:00,
2013-05-23 14:32:00,71.8,54.3,30.10,North,-999,-999.0,-999.0,54,-99.99,,,-99.99,meteohub,2013-05-23 19:32:00,
2013-05-23 14:37:00,72.5,56.5,30.09,North,-999,-999.0,-999.0,57,-99.99,,,-99.99,meteohub,2013-05-23 19:37:00,
2013-05-23 14:43:00,71.4,53.4,30.10,North,-999,-999.0,-999.0,53,-99.99,,,-99.99,meteohub,2013-05-23 19:43:00,
2013-05-23 14:49:00,70.0,53.1,30.10,North,-999,-999.0,-999.0,55,-99.99,,,-99.99,meteohub,2013-05-23 19:49:00,
2013-05-23 14:55:00,69.8,54.9,30.10,North,-999,-999.0,-999.0,59,-99.99,,,-99.99,meteohub,2013-05-23 19:55:00,
2013-05-23 15:01:00,70.7,54.7,30.10,North,-999,-999.0,-999.0,57,-99.99,,,-99.99,meteohub,2013-05-23 20:01:00,
2013-05-23 15:07:00,71.1,54.1,30.10,North,-999,-999.0,-999.0,55,-99.99,,,-99.99,meteohub,2013-05-23 20:07:00,
2013-05-23 15:12:00,71.1,55.0,30.09,North,-999,-999.0,-999.0,57,-99.99,,,-99.99,meteohub,2013-05-23 20:12:00,
2013-05-23 15:17:00,71.2,54.7,30.09,North,-999,-999.0,-999.0,56,-99.99,,,-99.99,meteohub,2013-05-23 20:17:00,
2013-05-23 15:22:00,71.2,54.7,30.10,North,-999,-999.0,-999.0,56,-99.99,,,-99.99,meteohub,2013-05-23 20:22:00,
2013-05-23 15:27:00,72.1,54.5,30.09,North,-999,-999.0,-999.0,54,-99.99,,,-99.99,meteohub,2013-05-23 20:27:00,
2013-05-23 15:32:00,72.0,54.0,30.10,North,-999,-999.0,-999.0,53,-99.99,,,-99.99,meteohub,2013-05-23 20:32:00,
2013-05-23 15:37:00,71.6,53.6,30.10,North,-999,-999.0,-999.0,53,-99.99,,,-99.99,meteohub,2013-05-23 20:37:00,
2013-05-23 15:42:00,70.9,54.3,30.10,North,-999,-999.0,-999.0,56,-99.99,,,-99.99,meteohub,2013-05-23 20:42:00,
2013-05-23 15:47:00,70.7,54.3,30.09,North,-999,-999.0,-999.0,56,-99.99,,,-99.99,meteohub,2013-05-23 20:47:00,
2013-05-23 15:52:00,71.1,54.5,30.09,North,-999,-999.0,-999.0,56,-99.99,,,-99.99,meteohub,2013-05-23 20:52:00,
2013-05-23 15:57:00,72.1,55.0,30.09,North,-999,-999.0,-999.0,55,-99.99,,,-99.99,meteohub,2013-05-23 20:57:00,
2013-05-23 16:02:00,70.9,55.4,30.09,North,-999,-999.0,-999.0,58,-99.99,,,-99.99,meteohub,2013-05-23 21:02:00,
2013-05-23 16:07:00,70.3,54.9,30.09,North,-999,-999.0,-999.0,58,-99.99,,,-99.99,meteohub,2013-05-23 21:07:00,
2013-05-23 16:12:00,70.2,54.7,30.09,North,-999,-999.0,-999.0,58,-99.99,,,-99.99,meteohub,2013-05-23 21:12:00,
2013-05-23 16:17:00,70.9,54.3,30.09,North,-999,-999.0,-999.0,56,-99.99,,,-99.99,meteohub,2013-05-23 21:17:00,
2013-05-23 16:22:00,70.2,53.8,30.10,North,-999,-999.0,-999.0,56,-99.99,,,-99.99,meteohub,2013-05-23 21:22:00,
2013-05-23 16:27:00,70.0,55.0,30.09,North,-999,-999.0,-999.0,59,-99.99,,,-99.99,meteohub,2013-05-23 21:27:00,
2013-05-23 16:32:00,69.6,54.7,30.09,North,-999,-999.0,-999.0,59,-99.99,,,-99.99,meteohub,2013-05-23 21:32:00,
2013-05-23 16:37:00,70.0,54.5,30.10,North,-999,-999.0,-999.0,58,-99.99,,,-99.99,meteohub,2013-05-23 21:37:00,
2013-05-23 16:42:00,69.3,54.3,30.09,North,-999,-999.0,-999.0,59,-99.99,,,-99.99,meteohub,2013-05-23 21:42:00,
2013-05-23 16:47:00,69.3,54.3,30.09,North,-999,-999.0,-999.0,59,-99.99,,,-99.99,meteohub,2013-05-23 21:47:00,
2013-05-23 16:52:00,69.6,55.0,30.09,North,-999,-999.0,-999.0,60,-99.99,,,-99.99,meteohub,2013-05-23 21:52:00,
2013-05-23 16:57:00,69.3,53.4,30.09,North,-999,-999.0,-999.0,57,-99.99,,,-99.99,meteohub,2013-05-23 21:57:00,
2013-05-23 17:02:00,68.7,54.3,30.09,North,-999,-999.0,-999.0,60,-99.99,,,-99.99,meteohub,2013-05-23 22:02:00,
2013-05-23 17:07:00,68.5,54.5,30.10,North,-999,-999.0,-999.0,61,-99.99,,,-99.99,meteohub,2013-05-23 22:07:00,
2013-05-23 17:12:00,68.7,54.3,30.10,North,-999,-999.0,-999.0,60,-99.99,,,-99.99,meteohub,2013-05-23 22:12:00,
2013-05-23 17:17:00,68.4,54.3,30.10,North,-999,-999.0,-999.0,61,-99.99,,,-99.99,meteohub,2013-05-23 22:17:00,
2013-05-23 17:22:00,68.2,54.7,30.10,North,-999,-999.0,-999.0,62,-99.99,,,-99.99,meteohub,2013-05-23 22:22:00,
2013-05-23 17:27:00,68.2,54.7,30.10,North,-999,-999.0,-999.0,62,-99.99,,,-99.99,meteohub,2013-05-23 22:27:00,
2013-05-23 17:32:00,68.5,54.5,30.10,North,-999,-999.0,-999.0,61,-99.99,,,-99.99,meteohub,2013-05-23 22:32:00,
2013-05-23 17:37:00,68.7,54.7,30.10,North,-999,-999.0,-999.0,61,-99.99,,,-99.99,meteohub,2013-05-23 22:37:00,
2013-05-23 17:42:00,68.9,54.5,30.10,North,-999,-999.0,-999.0,60,-99.99,,,-99.99,meteohub,2013-05-23 22:42:00,
2013-05-23 17:47:00,68.9,54.9,30.10,North,-999,-999.0,-999.0,61,-99.99,,,-99.99,meteohub,2013-05-23 22:47:00,
2013-05-23 17:52:00,68.4,54.9,30.11,North,-999,-999.0,-999.0,62,-99.99,,,-99.99,meteohub,2013-05-23 22:52:00,
2013-05-23 17:57:00,68.2,55.0,30.11,North,-999,-999.0,-999.0,63,-99.99,,,-99.99,meteohub,2013-05-23 22:57:00,
2013-05-23 18:02:00,68.5,54.5,30.11,North,-999,-999.0,-999.0,61,-99.99,,,-99.99,meteohub,2013-05-23 23:02:00,
2013-05-23 18:07:00,69.3,54.9,30.11,North,-999,-999.0,-999.0,60,-99.99,,,-99.99,meteohub,2013-05-23 23:07:00,
2013-05-23 18:12:00,70.2,54.7,30.11,North,-999,-999.0,-999.0,58,-99.99,,,-99.99,meteohub,2013-05-23 23:12:00,
2013-05-23 18:17:00,69.6,54.1,30.11,North,-999,-999.0,-999.0,58,-99.99,,,-99.99,meteohub,2013-05-23 23:17:00,
2013-05-23 18:22:00,69.3,54.9,30.10,North,-999,-999.0,-999.0,60,-99.99,,,-99.99,meteohub,2013-05-23 23:22:00,
2013-05-23 18:27:00,69.8,54.3,30.09,North,-999,-999.0,-999.0,58,-99.99,,,-99.99,meteohub,2013-05-23 23:27:00,
2013-05-23 18:32:00,69.3,54.3,30.10,North,-999,-999.0,-999.0,59,-99.99,,,-99.99,meteohub,2013-05-23 23:32:00,
2013-05-23 18:37:00,70.2,54.1,30.10,North,-999,-999.0,-999.0,57,-99.99,,,-99.99,meteohub,2013-05-23 23:37:00,
2013-05-23 18:42:00,70.9,54.3,30.10,North,-999,-999.0,-999.0,56,-99.99,,,-99.99,meteohub,2013-05-23 23:42:00,
2013-05-23 18:47:00,71.2,54.7,30.10,North,-999,-999.0,-999.0,56,-99.99,,,-99.99,meteohub,2013-05-23 23:47:00,
2013-05-23 18:52:00,71.2,54.3,30.10,North,-999,-999.0,-999.0,55,-99.99,,,-99.99,meteohub,2013-05-23 23:52:00,
2013-05-23 18:57:00,70.7,54.3,30.09,North,-999,-999.0,-999.0,56,-99.99,,,-99.99,meteohub,2013-05-23 23:57:00,
2013-05-23 19:02:00,69.8,54.3,30.10,North,-999,-999.0,-999.0,58,-99.99,,,-99.99,meteohub,2013-05-24 00:02:00,
2013-05-23 19:07:00,68.2,54.1,30.10,North,-999,-999.0,-999.0,61,-99.99,,,-99.99,meteohub,2013-05-24 00:07:00,
2013-05-23 19:12:00,67.5,54.5,30.10,North,-999,-999.0,-999.0,63,-99.99,,,-99.99,meteohub,2013-05-24 00:12:00,
2013-05-23 19:17:00,66.7,54.7,30.10,North,-999,-999.0,-999.0,65,-99.99,,,-99.99,meteohub,2013-05-24 00:17:00,
2013-05-23 19:22:00,66.2,54.9,30.09,North,-999,-999.0,-999.0,67,-99.99,,,-99.99,meteohub,2013-05-24 00:22:00,
2013-05-23 19:27:00,66.0,54.7,30.09,North,-999,-999.0,-999.0,67,-99.99,,,-99.99,meteohub,2013-05-24 00:27:00,
2013-05-23 19:32:00,65.8,54.5,30.09,North,-999,-999.0,-999.0,67,-99.99,,,-99.99,meteohub,2013-05-24 00:32:00,
2013-05-23 19:37:00,65.7,54.3,30.09,North,-999,-999.0,-999.0,67,-99.99,,,-99.99,meteohub,2013-05-24 00:37:00,
2013-05-23 19:42:00,65.1,54.7,30.09,North,-999,-999.0,-999.0,69,-99.99,,,-99.99,meteohub,2013-05-24 00:42:00,
2013-05-23 19:47:00,64.8,54.3,30.09,North,-999,-999.0,-999.0,69,-99.99,,,-99.99,meteohub,2013-05-24 00:47:00,
2013-05-23 19:52:00,64.6,53.8,30.09,North,-999,-999.0,-999.0,68,-99.99,,,-99.99,meteohub,2013-05-24 00:52:00,
2013-05-23 19:57:00,64.8,54.0,30.09,North,-999,-999.0,-999.0,68,-99.99,,,-99.99,meteohub,2013-05-24 00:57:00,
2013-05-23 20:02:00,64.8,53.6,30.09,North,-999,-999.0,-999.0,67,-99.99,,,-99.99,meteohub,2013-05-24 01:02:00,
2013-05-23 20:07:00,64.8,53.1,30.10,North,-999,-999.0,-999.0,66,-99.99,,,-99.99,meteohub,2013-05-24 01:07:00,
2013-05-23 20:12:00,64.8,53.1,30.10,North,-999,-999.0,-999.0,66,-99.99,,,-99.99,meteohub,2013-05-24 01:12:00,
2013-05-23 20:17:00,64.6,52.9,30.10,North,-999,-999.0,-999.0,66,-99.99,,,-99.99,meteohub,2013-05-24 01:17:00,
2013-05-23 20:22:00,64.2,53.4,30.11,North,-999,-999.0,-999.0,68,-99.99,,,-99.99,meteohub,2013-05-24 01:22:00,
2013-05-23 20:27:00,64.0,53.2,30.10,North,-999,-999.0,-999.0,68,-99.99,,,-99.99,meteohub,2013-05-24 01:27:00,
2013-05-23 20:32:00,63.7,53.2,30.11,North,-999,-999.0,-999.0,69,-99.99,,,-99.99,meteohub,2013-05-24 01:32:00,
2013-05-23 20:37:00,63.3,53.1,30.11,North,-999,-999.0,-999.0,69,-99.99,,,-99.99,meteohub,2013-05-24 01:37:00,
2013-05-23 20:42:00,63.0,53.1,30.11,North,-999,-999.0,-999.0,70,-99.99,,,-99.99,meteohub,2013-05-24 01:42:00,
2013-05-23 20:47:00,62.6,53.1,30.11,North,-999,-999.0,-999.0,71,-99.99,,,-99.99,meteohub,2013-05-24 01:47:00,
2013-05-23 20:52:00,62.4,52.9,30.12,North,-999,-999.0,-999.0,71,-99.99,,,-99.99,meteohub,2013-05-24 01:52:00,
2013-05-23 20:57:00,62.1,52.9,30.11,North,-999,-999.0,-999.0,72,-99.99,,,-99.99,meteohub,2013-05-24 01:57:00,
2013-05-23 21:02:00,61.9,53.1,30.11,North,-999,-999.0,-999.0,73,-99.99,,,-99.99,meteohub,2013-05-24 02:02:00,
2013-05-23 21:07:00,61.5,53.2,30.11,North,-999,-999.0,-999.0,74,-99.99,,,-99.99,meteohub,2013-05-24 02:07:00,
2013-05-23 21:12:00,61.5,53.2,30.11,North,-999,-999.0,-999.0,74,-99.99,,,-99.99,meteohub,2013-05-24 02:12:00,
2013-05-23 21:17:00,61.5,53.2,30.12,North,-999,-999.0,-999.0,74,-99.99,,,-99.99,meteohub,2013-05-24 02:17:00,
2013-05-23 21:22:00,61.3,53.1,30.12,North,-999,-999.0,-999.0,74,-99.99,,,-99.99,meteohub,2013-05-24 02:22:00,
2013-05-23 21:27:00,61.2,52.9,30.12,North,-999,-999.0,-999.0,74,-99.99,,,-99.99,meteohub,2013-05-24 02:27:00,
2013-05-23 21:32:00,60.8,53.2,30.12,North,-999,-999.0,-999.0,76,-99.99,,,-99.99,meteohub,2013-05-24 02:32:00,
2013-05-23 21:37:00,60.6,53.4,30.12,North,-999,-999.0,-999.0,77,-99.99,,,-99.99,meteohub,2013-05-24 02:37:00,
2013-05-23 21:42:00,60.3,53.1,30.12,North,-999,-999.0,-999.0,77,-99.99,,,-99.99,meteohub,2013-05-24 02:42:00,
2013-05-23 21:47:00,60.1,53.2,30.12,North,-999,-999.0,-999.0,78,-99.99,,,-99.99,meteohub,2013-05-24 02:47:00,
2013-05-23 21:52:00,59.9,53.1,30.13,North,-999,-999.0,-999.0,78,-99.99,,,-99.99,meteohub,2013-05-24 02:52:00,
2013-05-23 21:57:00,59.5,53.1,30.13,North,-999,-999.0,-999.0,79,-99.99,,,-99.99,meteohub,2013-05-24 02:57:00,
2013-05-23 22:02:00,59.4,52.9,30.13,North,-999,-999.0,-999.0,79,-99.99,,,-99.99,meteohub,2013-05-24 03:02:00,
2013-05-23 22:07:00,59.0,52.9,30.14,North,-999,-999.0,-999.0,80,-99.99,,,-99.99,meteohub,2013-05-24 03:07:00,
2013-05-23 22:12:00,58.6,52.5,30.14,North,-999,-999.0,-999.0,80,-99.99,,,-99.99,meteohub,2013-05-24 03:12:00,
2013-05-23 22:17:00,58.5,52.7,30.14,North,-999,-999.0,-999.0,81,-99.99,,,-99.99,meteohub,2013-05-24 03:17:00,
2013-05-23 22:22:00,58.1,52.7,30.15,North,-999,-999.0,-999.0,82,-99.99,,,-99.99,meteohub,2013-05-24 03:22:00,
2013-05-23 22:27:00,57.9,52.5,30.14,North,-999,-999.0,-999.0,82,-99.99,,,-99.99,meteohub,2013-05-24 03:27:00,
2013-05-23 22:32:00,57.7,52.7,30.15,North,-999,-999.0,-999.0,83,-99.99,,,-99.99,meteohub,2013-05-24 03:32:00,
2013-05-23 22:37:00,57.6,52.5,30.15,North,-999,-999.0,-999.0,83,-99.99,,,-99.99,meteohub,2013-05-24 03:37:00,
2013-05-23 22:42:00,57.4,52.5,30.16,North,-999,-999.0,-999.0,84,-99.99,,,-99.99,meteohub,2013-05-24 03:42:00,
2013-05-23 22:47:00,57.2,52.3,30.15,North,-999,-999.0,-999.0,84,-99.99,,,-99.99,meteohub,2013-05-24 03:47:00,
2013-05-23 22:52:00,56.8,52.0,30.15,North,-999,-999.0,-999.0,84,-99.99,,,-99.99,meteohub,2013-05-24 03:52:00,
2013-05-23 22:57:00,56.5,51.6,30.16,North,-999,-999.0,-999.0,84,-99.99,,,-99.99,meteohub,2013-05-24 03:57:00,
2013-05-23 23:01:00,56.3,51.4,30.16,North,-999,-999.0,-999.0,84,-99.99,,,-99.99,meteohub,2013-05-24 04:01:00,
2013-05-23 23:02:00,56.3,51.4,30.16,North,-999,-999.0,-999.0,84,-99.99,,,-99.99,meteohub,2013-05-24 04:02:00,
2013-05-23 23:07:00,55.9,51.8,30.16,North,-999,-999.0,-999.0,86,-99.99,,,-99.99,meteohub,2013-05-24 04:07:00,
2013-05-23 23:13:00,55.8,52.0,30.16,North,-999,-999.0,-999.0,87,-99.99,,,-99.99,meteohub,2013-05-24 04:13:00,
2013-05-23 23:19:00,55.4,51.3,30.16,North,-999,-999.0,-999.0,86,-99.99,,,-99.99,meteohub,2013-05-24 04:19:00,
2013-05-23 23:25:00,55.0,50.9,30.16,North,-999,-999.0,-999.0,86,-99.99,,,-99.99,meteohub,2013-05-24 04:25:00,
2013-05-23 23:31:00,54.5,50.7,30.15,North,-999,-999.0,-999.0,87,-99.99,,,-99.99,meteohub,2013-05-24 04:31:00,
2013-05-23 23:37:00,54.0,50.5,30.15,North,-999,-999.0,-999.0,88,-99.99,,,-99.99,meteohub,2013-05-24 04:37:00,
2013-05-23 23:42:00,53.8,50.5,30.15,North,-999,-999.0,-999.0,89,-99.99,,,-99.99,meteohub,2013-05-24 04:42:00,
2013-05-23 23:47:00,53.8,51.3,30.15,North,-999,-999.0,-999.0,91,-99.99,,,-99.99,meteohub,2013-05-24 04:47:00,
2013-05-23 23:52:00,54.0,51.6,30.15,North,-999,-999.0,-999.0,92,-99.99,,,-99.99,meteohub,2013-05-24 04:52:00,
2013-05-23 23:57:00,54.1,51.8,30.15,North,-999,-999.0,-999.0,92,-99.99,,,-99.99,meteohub,2013-05-24 04:57:00,